Location: Lecce
(40.3830°N, 18.1830°E)
Time: 11:44:12
(UTC+02:00)

ISS - Visible Passes

Search period start: 11 May 2021 00:00
Search period end: 21 May 2021 00:00
Orbit: 418 x 421 km, 51.6° (Epoch: 11 May)

Date Brightness Start Highest point End Pass type
(mag) Time Alt. Az. Time Alt. Az. Time Alt. Az.
11 May -0.6 02:04:21 13° NNW 02:04:55 13° N 02:06:34 10° NNE visible
11 May -0.7 03:40:42 10° NNW 03:42:49 15° NNE 03:44:56 10° NE visible
12 May -0.4 01:18:16 13° N 01:18:16 13° N 01:19:12 10° NNE visible
12 May -0.6 02:53:21 10° NNW 02:55:08 13° N 02:56:53 10° NE visible
12 May -1.9 04:29:35 10° NW 04:32:43 34° NNE 04:35:50 10° E visible
13 May -0.4 02:05:54 10° NNW 02:07:25 12° N 02:08:56 10° NNE visible
13 May -1.3 03:42:19 10° NNW 03:45:09 24° NNE 03:47:59 10° E visible
14 May -0.4 01:18:38 11° NNW 01:19:42 12° N 01:21:10 10° NNE visible
14 May -0.9 02:55:03 10° NNW 02:57:32 19° NNE 03:00:01 10° ENE visible
14 May -3.8 04:31:21 10° NW 04:34:45 88° NE 04:38:07 10° SE visible
14 May -3.3 21:14:22 10° SSW 21:17:29 37° SE 21:20:37 10° ENE visible
14 May -1.8 22:51:20 10° W 22:54:19 29° NNW 22:55:37 22° NNE visible
15 May -0.4 00:30:20 10° NW 00:31:58 13° N 00:33:38 10° NNE visible
15 May -0.6 02:07:45 10° NNW 02:09:52 15° NNE 02:12:00 10° NE visible
15 May -2.9 03:43:58 10° NW 03:47:17 52° NNE 03:50:35 10° ESE visible
15 May -2.5 20:27:32 10° S 20:30:10 21° SE 20:32:49 10° E visible
15 May -2.5 22:03:34 10° WSW 22:06:47 43° NNW 22:10:02 10° NE visible
15 May -0.5 23:42:18 10° NW 23:44:16 14° NNW 23:46:14 10° NNE visible
16 May -0.4 01:20:25 10° NNW 01:22:11 13° N 01:23:57 10° NE visible
16 May -2.0 02:56:39 10° NW 02:59:46 34° NNE 03:02:53 10° E visible
16 May -2.9 04:33:32 10° WNW 04:36:32 29° SW 04:39:31 10° SSE visible
16 May -3.5 21:15:57 10° WSW 21:19:18 71° NW 21:22:40 10° NE visible
16 May -0.7 22:54:16 10° WNW 22:56:36 17° NNW 22:58:56 10° NNE visible
17 May -0.3 00:32:56 10° NNW 00:34:28 12° N 00:35:59 10° NNE visible
17 May -1.4 02:09:22 10° NNW 02:12:12 24° NNE 02:15:02 10° E visible
17 May -3.7 03:45:53 10° WNW 03:49:11 52° SW 03:52:28 10° SE visible
17 May -3.8 20:28:33 10° SW 20:31:52 67° SE 20:35:13 10° ENE visible
17 May -1.1 22:06:16 10° WNW 22:08:57 22° NNW 22:11:39 10° NNE visible
17 May -0.4 23:45:16 10° NNW 23:46:44 12° N 23:48:12 10° NNE visible
18 May -0.6 01:22:05 10° NNW 01:22:56 14° NNW 01:22:56 14° NNW visible
18 May -1.6 21:18:22 10° W 21:21:21 29° NNW 21:24:22 10° NE visible
18 May -0.5 22:57:22 10° NW 22:59:01 13° N 23:00:39 10° NNE visible
19 May -0.6 00:34:48 10° NNW 00:36:31 15° N 00:36:31 15° N visible
19 May -2.4 20:30:35 10° WSW 20:33:49 43° NNW 20:37:03 10° NE visible
19 May -0.6 22:09:21 10° NW 22:11:18 14° NNW 22:13:15 10° NNE visible
19 May -0.6 23:47:26 10° NNW 23:49:13 13° N 23:50:21 12° NNE visible
20 May -0.7 21:21:17 10° WNW 21:23:37 17° NNW 21:25:56 10° NNE visible
20 May -0.6 22:59:58 10° NNW 23:01:29 12° N 23:03:01 10° NNE visible
